EW7912 Weather Reports


time (UTC)temp
C
wind
direction
speed
KPH
gust
KPH
rain 1hr
cm
rain 24hr
cm
rain mn
cm
humidity
%
barometer
mb
20260509173914 26 229 3.2 8.0 0.00 0.00 0.00 80 1010.5
20260509173408 26 248 3.2 8.0 0.00 0.00 0.00 81 1010.4
20260509172902 26 189 1.6 8.0 0.00 0.00 0.00 81 1010.5
20260509172357 26 177 1.6 8.0 0.00 0.00 0.00 82 1010.6
20260509171851 26 305 1.6 8.0 0.00 0.00 0.00 83 1010.7
20260509171344 26 159 4.8 9.7 0.00 0.00 0.00 84 1010.7
20260509170838 25 240 3.2 9.7 0.00 0.00 0.00 85 1010.7
20260509170332 25 242 1.6 11.3 0.00 0.00 0.00 87 1010.8
20260509165826 25 242 3.2 11.3 0.00 0.00 0.00 88 1010.8
20260509165320 25 157 3.2 9.7 0.00 0.00 0.00 89 1010.8
20260509164813 25 196 3.2 9.7 0.00 0.00 0.00 91 1010.7
20260509164307 25 270 3.2 9.7 0.00 0.00 0.00 92 1010.8
20260509163802 25 245 1.6 9.7 0.00 0.00 0.00 93 1010.8
20260509163257 24 186 1.6 8.0 0.00 0.00 0.00 94 1010.8
20260509163012 24 233 1.6 8.0 0.00 0.00 0.00 94 1010.8
20260509162244 24 263 3.2 8.0 0.00 0.00 0.00 95 1010.8
20260509161738 23 239 3.2 8.0 0.00 0.00 0.00 95 1010.8
20260509161245 23 190 3.2 9.7 0.00 0.00 0.00 95 1010.7
20260509160725 23 190 1.6 9.7 0.00 0.00 0.00 95 1010.7
20260509160219 23 318 0.0 3.2 0.00 0.00 0.00 96 1010.5
20260509155714 23 278 0.0 3.2 0.00 0.00 0.00 96 1010.5
20260509155208 23 277 0.0 4.8 0.00 0.00 0.00 96 1010.5
20260509154702 23 238 0.0 4.8 0.00 0.00 0.00 95 1010.5
20260509154156 23 215 0.0 0.0 0.00 0.00 0.00 96 1010.5
20260509153649 23 234 0.0 0.0 0.00 0.00 0.00 95 1010.5
20260509153144 22 234 0.0 0.0 0.00 0.00 0.00 95 1010.6
20260509152638 22 233 0.0 0.0 0.00 0.00 0.00 95 1010.6
20260509152349 22 233 0.0 0.0 0.00 0.00 0.00 95 1010.7
20260509151631 22 233 0.0 0.0 0.00 0.00 0.00 95 1010.8
20260509151120 22 233 0.0 0.0 0.00 0.00 0.00 95 1010.8
20260509150615 22 227 0.0 0.0 0.00 0.00 0.00 95 1010.8
20260509150110 22 227 0.0 0.0 0.00 0.00 0.00 95 1010.9
20260509145601 22 227 0.0 0.0 0.00 0.00 0.00 95 1010.9
20260509145055 22 227 0.0 0.0 0.00 0.00 0.00 95 1010.9
20260509144550 22 227 0.0 0.0 0.00 0.00 0.00 95 1010.9
20260509144044 22 227 0.0 0.0 0.00 0.00 0.00 95 1010.9
20260509143538 22 227 0.0 0.0 0.00 0.00 0.00 95 1010.9
20260509143031 22 227 0.0 0.0 0.00 0.00 0.00 95 1011.0
20260509142749 22 227 0.0 0.0 0.00 0.00 0.00 95 1011.1
20260509142020 22 227 0.0 0.0 0.00 0.00 0.00 95 1011.0
20260509141519 22 225 0.0 0.0 0.00 0.00 0.00 95 1011.0
20260509141236 22 225 0.0 0.0 0.00 0.00 0.00 95 1011.0
20260509140516 22 225 0.0 0.0 0.00 0.00 0.00 95 1010.9
20260509140013 22 225 0.0 0.0 0.00 0.00 0.00 95 1010.9
20260509135514 22 225 0.0 0.0 0.00 0.00 0.00 95 1011.0
20260509135014 22 226 0.0 0.0 0.00 0.00 0.00 95 1010.9
20260509134735 22 226 0.0 0.0 0.00 0.00 0.00 95 1010.8
20260509134009 22 226 0.0 0.0 0.00 0.00 0.00 95 1010.8
20260509133508 22 225 0.0 0.0 0.00 0.00 0.00 95 1010.8
20260509133005 22 290 0.0 0.0 0.00 0.00 0.00 95 1010.8
20260509132504 22 293 0.0 0.0 0.00 0.00 0.00 95 1010.9
20260509132001 22 294 0.0 0.0 0.00 0.00 0.00 95 1010.8
20260509131725 22 292 0.0 0.0 0.00 0.00 0.00 95 1010.7
20260509131002 21 292 0.0 0.0 0.00 0.00 0.00 95 1010.7
20260509130502 21 292 0.0 0.0 0.00 0.00 0.00 95 1010.6
20260509130001 21 292 0.0 0.0 0.00 0.00 0.00 95 1010.6
20260509125500 21 292 0.0 0.0 0.00 0.00 0.00 95 1010.6
20260509124957 21 293 0.0 0.0 0.00 0.00 0.00 94 1010.7
20260509124936 21 293 0.0 0.0 0.00 0.00 0.00 95 1010.8
20260509123958 21 293 0.0 0.0 0.00 0.00 0.00 94 1010.7
20260509123510 21 177 0.0 0.0 0.00 0.00 0.00 95 1010.6
20260509123319 21 118 0.0 0.0 0.00 0.00 0.00 95 1010.4
20260509123212 21 118 0.0 0.0 0.00 0.00 0.00 95 1010.3
20260509121956 21 118 0.0 0.0 0.00 0.00 0.00 94 1010.3
20260509121456 21 118 0.0 0.0 0.00 0.00 0.00 94 1010.3
20260509120956 21 191 0.0 0.0 0.00 0.00 0.00 94 1010.3
20260509120502 21 209 0.0 0.0 0.00 0.00 0.00 94 1010.3
20260509115956 21 240 0.0 0.0 0.00 0.00 0.00 94 1010.2
20260509115720 21 242 0.0 0.0 0.00 0.00 0.00 94 1010.1
20260509114951 21 242 0.0 0.0 0.00 0.00 0.00 94 1010.0
20260509114451 21 242 0.0 3.2 0.00 0.00 0.00 94 1010.0
20260509113952 21 242 0.0 3.2 0.00 0.00 0.00 94 1010.0
20260509113452 21 251 0.0 3.2 0.00 0.00 0.00 94 1009.8
20260509112952 21 252 0.0 3.2 0.00 0.00 0.00 94 1009.8
20260509112452 21 273 1.6 6.4 0.00 0.00 0.00 94 1009.7
20260509112213 21 234 1.6 8.0 0.00 0.00 0.00 94 1009.5
20260509111452 21 131 0.0 8.0 0.00 0.00 0.00 94 1009.3
20260509111224 21 161 0.0 3.2 0.00 0.00 0.00 94 1009.3
20260509110451 21 144 0.0 4.8 0.00 0.00 0.00 94 1009.2
20260509105952 21 173 0.0 4.8 0.00 0.00 0.00 94 1009.3
20260509105452 21 94 1.6 3.2 0.00 0.00 0.00 94 1009.6
20260509104951 21 194 0.0 3.2 0.00 0.00 0.00 94 1009.0
20260509104452 21 244 0.0 1.6 0.00 0.00 0.00 94 1009.7
20260509103951 21 244 0.0 1.6 0.00 0.00 0.00 94 1009.7
20260509103453 21 234 0.0 0.0 0.00 0.00 0.00 94 1009.7
20260509102949 21 216 0.0 3.2 0.00 0.00 0.00 94 1009.8
20260509102451 21 217 0.0 4.8 0.00 0.00 0.00 94 1009.8
20260509102200 21 262 0.0 4.8 0.00 0.00 0.00 94 1009.8
20260509101443 21 191 1.6 4.8 0.00 0.00 0.00 93 1009.8
20260509100931 21 191 1.6 4.8 0.00 0.00 0.00 93 1009.6
20260509100425 21 218 0.0 4.8 0.00 0.00 0.00 93 1009.8
20260509095919 21 224 0.0 0.0 0.00 0.00 0.00 93 1009.9
20260509095412 21 226 0.0 0.0 0.00 0.00 0.00 93 1010.0
20260509094907 21 224 0.0 0.0 0.00 0.00 0.00 93 1010.0
20260509094401 21 224 0.0 0.0 0.00 0.00 0.00 93 1010.2
20260509093855 21 118 0.0 0.0 0.00 0.00 0.00 93 1010.2
20260509093349 21 118 0.0 0.0 0.00 0.00 0.00 93 1010.1
20260509092843 21 118 0.0 0.0 0.00 0.00 0.00 93 1010.1
20260509092337 21 117 0.0 0.0 0.00 0.00 0.00 93 1010.1
20260509091831 21 118 0.0 0.0 0.00 0.00 0.00 93 1010.0
20260509091553 21 107 0.0 0.0 0.00 0.00 0.00 93 1010.0
20260509090821 21 34 0.0 0.0 0.00 0.00 0.00 93 1009.9
20260509090313 21 120 0.0 0.0 0.00 0.00 0.00 93 1009.7
20260509085806 21 119 0.0 0.0 0.00 0.00 0.00 93 1009.6
20260509085523 21 116 0.0 0.0 0.00 0.00 0.00 93 1009.8
20260509084757 21 116 0.0 0.0 0.00 0.00 0.00 93 1009.9
20260509084249 21 116 0.0 0.0 0.00 0.00 0.00 93 1009.9
20260509084008 21 116 0.0 0.0 0.00 0.00 0.00 93 1010.1
20260509083237 21 116 0.0 0.0 0.00 0.00 0.00 92 1010.2
20260509082954 21 116 0.0 0.0 0.00 0.00 0.00 93 1010.4
20260509082225 21 49 0.0 0.0 0.00 0.00 0.00 93 1010.7
20260509081942 21 49 0.0 0.0 0.00 0.00 0.00 92 1010.8
20260509081213 21 49 0.0 0.0 0.00 0.00 0.00 92 1010.7
20260509080707 21 49 0.0 0.0 0.00 0.00 0.00 92 1010.8
20260509080201 21 49 0.0 0.0 0.00 0.00 0.00 92 1010.9
20260509075654 21 49 0.0 0.0 0.00 0.00 0.00 92 1010.9
20260509075148 21 49 0.0 0.0 0.00 0.00 0.00 92 1010.8
20260509074643 21 49 0.0 0.0 0.00 0.00 0.00 92 1010.9
20260509074354 21 27 0.0 0.0 0.00 0.00 0.00 92 1011.0
20260509073631 21 21 0.0 0.0 0.00 0.00 0.00 92 1010.8
20260509073124 21 17 0.0 3.2 0.00 0.00 0.00 92 1010.6
20260509072618 21 5 1.6 6.4 0.00 0.00 0.00 91 1010.7
20260509072330 21 323 3.2 8.0 0.00 0.00 0.00 91 1010.6
20260509071835 21 26 1.6 8.0 0.00 0.00 0.00 91 1010.5
20260509071323 21 5 1.6 4.8 0.00 0.00 0.00 91 1010.4
20260509071042 21 63 1.6 4.8 0.00 0.00 0.00 90 1010.1
20260509065543 21 100 0.0 4.8 0.00 0.00 0.00 90 1010.0
20260509065037 21 178 0.0 6.4 0.00 0.00 0.00 90 1010.3
20260509064530 21 124 0.0 8.0 0.00 0.00 0.00 90 1010.2
20260509064025 21 84 0.0 8.0 0.00 0.00 0.00 90 1010.1
20260509063739 21 178 0.0 1.6 0.00 0.00 0.00 90 1010.1
20260509063452 21 144 0.0 1.6 0.00 0.00 0.00 90 1010.7
20260509062507 21 144 0.0 0.0 0.00 0.00 0.00 90 1010.9
20260509062000 21 144 0.0 1.6 0.00 0.00 0.00 90 1011.1
20260509061455 21 144 0.0 1.6 0.00 0.00 0.00 90 1011.4
20260509060949 21 142 0.0 1.6 0.00 0.00 0.00 89 1011.4
20260509060925 21 115 0.0 1.6 0.00 0.00 0.00 89 1011.4
20260509055937 21 94 0.0 1.6 0.00 0.00 0.00 89 1011.4
20260509055432 21 93 0.0 0.0 0.00 0.00 0.00 89 1011.5
20260509055149 21 93 0.0 0.0 0.00 0.00 0.00 90 1011.5
20260509054418 21 93 0.0 1.6 0.00 0.00 0.00 89 1011.6
20260509053913 21 93 0.0 1.6 0.00 0.00 0.00 89 1011.6
20260509053625 21 93 0.0 0.0 0.00 0.00 0.00 89 1011.7
20260509052901 21 94 0.0 1.6 0.00 0.00 0.00 89 1011.6
20260509052355 21 92 0.0 1.6 0.00 0.00 0.00 89 1011.5
20260509051849 21 78 0.0 0.0 0.00 0.00 0.00 89 1011.5
20260509051342 21 71 0.0 1.6 0.00 0.00 0.00 89 1011.4
20260509050837 21 70 0.0 1.6 0.00 0.00 0.00 89 1011.4
20260509050548 21 70 0.0 1.6 0.00 0.00 0.00 89 1011.2
20260509050047 21 107 0.0 0.0 0.00 0.00 0.00 89 1011.0
20260509045319 21 113 0.0 0.0 0.00 0.00 0.00 89 1010.8
20260509044814 21 113 0.0 0.0 0.00 0.00 0.00 89 1010.7
20260509044746 21 113 0.0 0.0 0.00 0.00 0.00 88 1010.8
20260509043802 21 144 0.0 0.0 0.00 0.00 0.00 88 1010.8
20260509043254 21 144 0.0 0.0 0.00 0.00 0.00 88 1010.7
20260509042749 21 144 0.0 3.2 0.00 0.00 0.00 88 1010.6
20260509042243 21 144 0.0 3.2 0.00 0.00 0.00 88 1010.5
20260509041736 21 172 0.0 3.2 0.00 0.00 0.00 88 1010.4
20260509041452 21 117 0.0 3.2 0.00 0.00 0.00 88 1010.3
20260509040724 21 130 0.0 0.0 0.00 0.00 0.00 88 1010.3
20260509040218 21 79 0.0 0.0 0.00 0.00 0.00 88 1010.3
20260509035713 21 79 0.0 0.0 0.00 0.00 0.00 88 1010.4
20260509035207 21 74 0.0 0.0 0.00 0.00 0.00 88 1010.4
20260509034700 21 73 0.0 0.0 0.00 0.00 0.00 87 1010.5
20260509034155 21 73 0.0 0.0 0.00 0.00 0.00 87 1010.5
20260509033649 21 72 0.0 0.0 0.00 0.00 0.00 87 1010.5
20260509033406 21 72 0.0 0.0 0.00 0.00 0.00 87 1010.4
20260509032859 21 69 0.0 0.0 0.00 0.00 0.00 87 1010.3
20260509032131 21 55 0.0 0.0 0.00 0.00 0.00 86 1010.3
20260509031625 21 55 0.0 0.0 0.00 0.00 0.00 86 1010.3
20260509031118 21 55 0.0 0.0 0.00 0.00 0.00 86 1010.2
20260509030612 21 55 0.0 0.0 0.00 0.00 0.00 86 1010.2
20260509030107 21 55 0.0 0.0 0.00 0.00 0.00 86 1010.2
20260509025601 21 55 0.0 0.0 0.00 0.00 0.00 86 1010.0
20260509025055 21 55 0.0 0.0 0.00 0.00 0.00 86 1010.0
20260509024549 22 55 0.0 0.0 0.00 0.00 0.00 86 1009.8
20260509024043 22 55 0.0 0.0 0.00 0.00 0.00 86 1009.7
20260509023538 22 55 0.0 0.0 0.00 0.00 0.00 85 1009.8
20260509023031 22 55 0.0 0.0 0.00 0.00 0.00 85 1009.7
20260509022729 22 55 0.0 0.0 0.00 0.00 0.00 85 1009.8
20260509022617 22 55 0.0 0.0 0.00 0.00 0.00 85 1009.7
20260509021523 22 55 0.0 0.0 0.00 0.00 0.00 85 1009.8
20260509021240 22 55 0.0 0.0 0.00 0.00 0.00 85 1009.6
20260509020520 22 55 0.0 0.0 0.00 0.00 0.00 84 1009.5
20260509020018 22 55 0.0 0.0 0.00 0.00 0.00 84 1009.4
20260509015515 22 55 0.0 0.0 0.00 0.00 0.00 84 1009.3
20260509015229 22 55 0.0 0.0 0.00 0.00 0.00 83 1009.2
20260509015000 22 55 0.0 0.0 0.00 0.00 0.00 83 1009.0
20260509014009 22 55 0.0 0.0 0.00 0.00 0.00 83 1008.9
20260509013730 22 55 0.0 0.0 0.00 0.00 0.00 82 1008.8
20260509013007 22 55 0.0 1.6 0.00 0.00 0.00 82 1008.8
20260509012507 23 154 0.0 4.8 0.00 0.00 0.00 81 1008.6
20260509012004 23 169 0.0 4.8 0.00 0.00 0.00 80 1008.5
20260509011502 23 96 0.0 4.8 0.00 0.00 0.00 80 1008.5
20260509011001 23 92 1.6 3.2 0.00 0.00 0.00 80 1008.6
20260509010500 23 97 1.6 3.2 0.00 0.00 0.00 79 1008.6
20260509010002 23 105 1.6 8.0 0.00 0.00 0.00 78 1008.5
20260509005502 24 155 1.6 8.0 0.00 0.00 0.00 77 1008.5
20260509005221 24 83 1.6 6.4 0.00 0.00 0.00 77 1008.6
20260509004722 24 200 1.6 6.4 0.00 0.00 0.00 76 1008.6
20260509004000 24 225 1.6 6.4 0.00 0.00 0.00 76 1008.6
20260509003501 24 196 1.6 6.4 0.00 0.00 0.00 76 1008.6
20260509003000 25 229 1.6 6.4 0.00 0.00 0.00 75 1008.7
20260509002500 25 86 1.6 6.4 0.00 0.00 0.00 75 1008.7
20260509002219 25 0 1.6 6.4 0.00 0.00 0.00 75 1008.6
20260509001500 25 65 1.6 8.0 0.00 0.00 0.00 76 1008.7
20260509001001 25 196 1.6 8.0 0.00 0.00 0.00 76 1008.5
20260509000501 25 129 1.6 9.7 0.00 0.00 0.00 76 1008.6
20260509000219 25 59 3.2 9.7 0.00 0.00 0.00 76 1008.6
20260508235501 25 117 3.2 8.0 0.00 0.00 0.00 75 1008.5
20260508235000 25 156 3.2 9.7 0.00 0.00 0.00 75 1008.6
20260508234500 25 137 1.6 9.7 0.00 0.00 0.00 75 1008.7
20260508234221 25 132 1.6 8.0 0.00 0.00 0.00 75 1008.8
20260508233501 25 129 1.6 8.0 0.00 0.00 0.00 74 1008.8
20260508233000 25 140 1.6 6.4 0.00 0.00 0.00 74 1008.9
20260508232500 25 98 1.6 4.8 0.00 0.00 0.00 74 1009.1
20260508232001 25 199 1.6 6.4 0.00 0.00 0.00 73 1009.3
20260508231724 25 197 0.0 6.4 0.00 0.00 0.00 73 1009.4
20260508231001 25 195 0.0 1.6 0.00 0.00 0.00 73 1009.6
20260508230501 25 207 0.0 4.8 0.00 0.00 0.00 72 1009.7
20260508230000 25 142 1.6 4.8 0.00 0.00 0.00 72 1009.8
20260508225502 26 104 1.6 4.8 0.00 0.00 0.00 71 1009.7
20260508225453 26 140 1.6 6.4 0.00 0.00 0.00 71 1009.7
20260508224500 26 210 1.6 6.4 0.00 0.00 0.00 71 1009.8
20260508223959 26 126 0.0 4.8 0.00 0.00 0.00 70 1009.8
20260508223459 26 26 1.6 6.4 0.00 0.00 0.00 70 1009.9
20260508222951 26 238 1.6 6.4 0.00 0.00 0.00 70 1009.7
20260508222446 26 213 3.2 9.7 0.00 0.00 0.00 70 1009.7
20260508221940 26 211 3.2 9.7 0.00 0.00 0.00 70 1009.5
20260508221434 26 90 3.2 9.7 0.00 0.00 0.00 70 1009.6
20260508220928 26 196 3.2 9.7 0.00 0.00 0.00 69 1009.7
20260508220643 26 198 1.6 6.4 0.00 0.00 0.00 69 1009.9
20260508215916 26 184 1.6 4.8 0.00 0.00 0.00 70 1010.3
20260508215411 26 227 1.6 4.8 0.00 0.00 0.00 70 1010.2
20260508214904 26 242 1.6 6.4 0.00 0.00 0.00 70 1010.2
20260508214617 26 111 1.6 6.4 0.00 0.00 0.00 70 1010.0
20260508213851 26 146 1.6 6.4 0.00 0.00 0.00 70 1010.0
20260508213614 26 92 1.6 8.0 0.00 0.00 0.00 69 1009.9
20260508212853 26 101 1.6 8.0 0.00 0.00 0.00 69 1009.9
20260508212352 26 104 1.6 6.4 0.00 0.00 0.00 69 1009.9
20260508211853 26 178 1.6 6.4 0.00 0.00 0.00 71 1009.9
20260508211353 26 48 1.6 6.4 0.00 0.00 0.00 70 1009.8
20260508210850 26 57 3.2 6.4 0.00 0.00 0.00 69 1010.0
20260508210609 26 46 3.2 6.4 0.00 0.00 0.00 68 1010.0
20260508205850 26 81 3.2 8.0 0.00 0.00 0.00 66 1010.0
20260508205350 26 52 3.2 8.0 0.00 0.00 0.00 66 1010.0
20260508204851 26 49 3.2 9.7 0.00 0.00 0.00 65 1009.9
20260508204351 27 71 3.2 9.7 0.00 0.00 0.00 66 1009.7
20260508203851 27 236 3.2 11.3 0.00 0.00 0.00 65 1009.7
20260508203350 26 258 4.8 12.9 0.00 0.00 0.00 64 1009.8
20260508202850 27 87 3.2 12.9 0.00 0.00 0.00 64 1010.0
20260508202350 27 46 3.2 9.7 0.00 0.00 0.00 62 1010.0
20260508201850 27 143 1.6 6.4 0.00 0.00 0.00 63 1010.2
20260508201345 27 118 1.6 11.3 0.00 0.00 0.00 64 1010.3
20260508200838 27 66 1.6 11.3 0.00 0.00 0.00 63 1010.4
20260508200332 27 140 1.6 3.2 0.00 0.00 0.00 62 1010.6
20260508195826 27 179 1.6 4.8 0.00 0.00 0.00 62 1010.7
20260508195321 27 194 1.6 4.8 0.00 0.00 0.00 62 1010.8
20260508194814 27 225 1.6 4.8 0.00 0.00 0.00 61 1010.8
20260508194308 27 169 1.6 6.4 0.00 0.00 0.00 61 1010.9
20260508193801 27 211 1.6 6.4 0.00 0.00 0.00 62 1011.0
20260508193256 26 222 3.2 9.7 0.00 0.00 0.00 64 1010.9
20260508192749 26 244 1.6 9.7 0.00 0.00 0.00 63 1011.0
20260508192244 26 203 1.6 6.4 0.00 0.00 0.00 64 1011.1
20260508191739 26 29 3.2 9.7 0.00 0.00 0.00 65 1011.0
20260508191231 26 20 4.8 16.1 0.00 0.00 0.00 63 1011.0
20260508190728 26 81 4.8 16.1 0.00 0.00 0.00 63 1011.0
20260508190437 26 5 3.2 6.4 0.00 0.00 0.00 63 1011.1
20260508185714 26 131 3.2 6.4 0.00 0.00 0.00 64 1011.2
20260508185208 26 336 3.2 9.7 0.00 0.00 0.00 65 1011.3
20260508184702 25 165 3.2 9.7 0.00 0.00 0.00 65 1011.3
20260508184156 25 103 3.2 12.9 0.00 0.00 0.00 67 1011.4
20260508183649 25 40 3.2 12.9 0.00 0.00 0.00 66 1011.5
20260508183143 25 96 3.2 11.3 0.00 0.00 0.00 66 1011.6
20260508182638 25 232 3.2 9.7 0.00 0.00 0.00 66 1011.6
20260508182132 25 216 3.2 9.7 0.00 0.00 0.00 66 1011.8
20260508181625 25 74 4.8 9.7 0.00 0.00 0.00 64 1011.9
20260508181119 25 53 3.2 9.7 0.00 0.00 0.00 65 1011.9
20260508180614 25 77 3.2 8.0 0.00 0.00 0.00 64 1012.0
20260508180110 25 90 3.2 11.3 0.00 0.00 0.00 63 1012.2
20260508175602 25 161 3.2 12.9 0.00 0.00 0.00 64 1012.3
20260508175056 25 56 3.2 12.9 0.00 0.00 0.00 65 1012.3
20260508174549 25 217 4.8 11.3 0.00 0.00 0.00 67 1012.4
20260508174305 25 192 4.8 11.3 0.00 0.00 0.00 67 1012.6